Weather History for PAWM - February, 2013

Change the Weather History Date:

Saturday, February 16, 2013

  Actual Average (PAKK) Record (PAKK)
Temperature  
Mean Temperature -10 °F -  
Max Temperature -4 °F 14 °F 35 °F (2001)
Min Temperature -17 °F 6 °F -16 °F (2009)
Degree Days  
Heating Degree Days 76    
Moisture  
Dew Point -16 °F    
Average Humidity 81    
Maximum Humidity 83    
Minimum Humidity 75    
Precipitation  
Precipitation 0.00 in - - ()
Sea Level Pressure  
Sea Level Pressure 30.16 in    
Wind  
Wind Speed 10 mph (North)    
Max Wind Speed 14 mph    
Max Gust Speed -    
Visibility 10 miles    
Events      
Averages and records for this station are not official NWS values.
T = Trace of Precipitation, MM = Missing Value Source: NWS Daily Summary

Daily Weather History Graph

Daily Weather History Graph

Search for Another Location

Airport or City:

Trip Planner

Search our weather history database for the weather conditions in past years. The results will help you decide how hot, cold, wet, or windy it might be!

Date:

Astronomy

Feb. 16, 2013 Rise Set
Actual Time 9:46 AM AKST 6:30 PM AKST
Civil Twilight 8:54 AM AKST 7:22 PM AKST
Nautical Twilight 7:57 AM AKST 8:19 PM AKST
Astronomical Twilight 7:01 AM AKST 9:15 PM AKST
Moon 10:20 AM AKST (2/16) 3:23 AM AKST (2/16)
Length of Visible Light 10h 27m
Length of Day
8h 43m
Waxing Crescent, 41% of the Moon is Illuminated
Feb 16
Waxing Crescent
Feb 17
First Quarter
Feb 25
Full
Mar 4
Last Quarter
Mar 11
New

Hourly Weather History & Observations

Time (AKST) Temp. Windchill Dew Point Humidity Pressure Visibility Wind Dir Wind Speed Gust Speed Precip Events Conditions
12:58 AM -11.9 °F -29.9 °F -16.1 °F 82% 30.06 in 10.0 mi North 9.2 mph - N/A   Overcast
1:58 AM -13.0 °F -31.3 °F -17.0 °F 82% 30.07 in 10.0 mi North 9.2 mph - N/A   Clear
3:58 AM -14.1 °F -33.7 °F -18.9 °F 79% 30.10 in 10.0 mi North 10.4 mph - N/A   Clear
4:58 AM -15.0 °F -35.9 °F -18.9 °F 82% 30.11 in 10.0 mi North 11.5 mph - N/A   Clear
5:58 AM -15.0 °F -34.8 °F -18.9 °F 82% 30.12 in 10.0 mi North 10.4 mph - N/A   Clear
6:58 AM -14.1 °F -35.7 °F -18.9 °F 79% 30.13 in 10.0 mi North 12.7 mph - N/A   Clear
7:58 AM -15.0 °F -34.8 °F -20.0 °F 78% 30.13 in 10.0 mi North 10.4 mph - N/A   Clear
8:58 AM -17.0 °F -39.3 °F -20.9 °F 82% 30.14 in 10.0 mi North 12.7 mph - N/A   Clear
9:58 AM -16.1 °F -38.2 °F -20.0 °F 82% 30.15 in 9.0 mi North 12.7 mph - N/A   Clear
10:58 AM -11.9 °F -31.0 °F -16.1 °F 82% 30.17 in 8.0 mi North 10.4 mph - N/A   Clear
11:58 AM -9.0 °F -25.2 °F -13.0 °F 83% 30.18 in 9.0 mi North 8.1 mph - N/A   Clear
12:58 PM -6.0 °F -18.6 °F -11.0 °F 79% 30.19 in 10.0 mi North 5.8 mph - N/A   Clear
1:58 PM -5.1 °F -21.5 °F -9.9 °F 80% 30.20 in 8.0 mi North 9.2 mph - N/A   Clear
2:58 PM -4.0 °F -16.3 °F -9.0 °F 79% 30.20 in 9.0 mi NNW 5.8 mph - N/A   Clear
3:58 PM -5.1 °F -21.5 °F -9.9 °F 80% 30.19 in 9.0 mi North 9.2 mph - N/A   Clear
5:58 PM -9.0 °F -26.4 °F -15.0 °F 75% 30.18 in 9.0 mi North 9.2 mph - N/A   Clear
6:58 PM -13.0 °F -31.3 °F -18.0 °F 78% 30.19 in 9.0 mi NNW 9.2 mph - 0.00 in   Clear
7:58 PM -14.1 °F -28.3 °F -18.0 °F 82% 30.20 in 10.0 mi NNW 5.8 mph - N/A   Clear
8:58 PM -14.1 °F -32.6 °F -18.0 °F 82% 30.20 in 10.0 mi North 9.2 mph - N/A   Clear
9:58 PM -14.1 °F -34.7 °F -18.0 °F 82% 30.21 in 10.0 mi North 11.5 mph - N/A   Clear
10:58 PM -14.1 °F -33.7 °F -18.0 °F 82% 30.22 in 10.0 mi North 10.4 mph - N/A   Clear
11:58 PM -14.1 °F -36.6 °F -18.0 °F 82% 30.22 in 10.0 mi NNW 13.8 mph - N/A   Clear